Location: Battery Park City
(40.7115°N, 74.0163°W)
Time: 18:22:43
(UTC+00:00)

Cosmos 1190 Rocket - Pass Details

Date: 08 December 2019
Orbit: 757 x 780 km, 74.1° (Epoch: 19 January)

Event Time Altitude Azimuth Distance (km) Brightness Sun altitude
Rises 23:10:06 0° 182° (S) 3,208 7.4 -18.6°
Reaches altitude 10° 23:12:31 10° 177° (S) 2,283 6.6 -19.1°
Maximum altitude 23:17:29 48° 104° (ESE) 983 4.1 -20.0°
Enters shadow 23:18:34 42° 67° (ENE) 1,082 4.3 -20.2°
